Zurück zum Katalog

COSMOS 1024 DEB

LostHEO
NORAD 26974·DEBRIS·🇷🇺 Russia

Gestartet Jun 28, 1978 von Plesetsk Cosmodrome

Loading…

Nächste Überflüge (nächste 24 Stunden)

TLE

VeraltetSource: Space-Track

Epoche: Aug 20, 2007, 01:38 UTC

1 26974U 78066E   07232.06832093 +.00000031 +00000-0 +10000-3 0  9998
2 26974 066.7843 152.2399 5640273 119.8730 307.4886 02.04425883093410

Verfolge COSMOS 1024 DEB in Echtzeit mit AllMySat

Download on the App Store